Location: B?lite?ti
(46.2833°N, 22.7333°E)
Time: 04:50:46
(UTC+00:00)

Okean 1-7 Rocket - Pass Details

Date: 24 January 2021
Orbit: 615 x 650 km, 82.5° (Epoch: 26 February)

Event Time Altitude Azimuth Distance (km) Brightness Sun altitude
Rises 15:44:59 0° 165° (SSE) 2,946 7.2 -4.4°
Reaches altitude 10° 15:47:20 10° 157° (SSE) 2,044 6.2 -4.8°
Maximum altitude 15:51:30 37° 91° (E) 1,020 4.2 -5.5°
Drops below altitude 10° 15:55:42 10° 25° (NNE) 2,065 5.8 -6.1°
Sets 15:58:05 0° 17° (NNE) 2,981 6.7 -6.5°
